sat.trackr.live / text

‹ back to catalog

STARLINK-30056

NORAD 57622 · 2023-119W

PAYLOAD ACTIVE UNKNOWN

§ Identity

Operator
Country
US
Launch date
2023-08-11
Launch site
AFETR
Launch vehicle
Mass (kg)
RCS (m²)

Purposes: comms

External: N2YO · Heavens-Above · Gunter

§ Orbital elements

Epoch: 2026-05-24T21:51:07.713216Z

Period
94.27 min
Inclination
43.0014°
Eccentricity
0.0001478
Mean motion
15.27581608 rev/d
Perigee alt
482.0 km
Apogee alt
484.1 km
Semi-major
6,861.2 km
B*
-2.0255e-5
RAAN
11.0768°
Arg perigee
274.3964°
Mean anomaly
85.6719°
Rev number
15,474

§ Raw data

STARLINK-300561 57622U 23119W   26144.91050594 -.00000820  00000+0 -20255-4 0  99972 57622  43.0014  11.0768 0001478 274.3964  85.6719 15.27581608154744

JSON: /api/v1/satellites/57622 · /tle

For live sub-satellite position, see the globe view (requires WebGL).

§ Visibility from observer

Set your observer location to see the next 7 days of passes ≥ 10°. The values pass through the URL so the page stays shareable.

No JS? Fill the form by hand. The geolocation button needs JavaScript.